When you browse on this site, cookies collect data to enhance your experience and personalize the content and advertising you see.
Visit our Privacy Policy to learn more. By continuing to use the site, you agree to this use of cookies and data.
  • In Sweden
  • List of Countries
  • For 7 days
  • Water Temperature
  • Weather Map
  • Weather Widgets
  • user-avatar
    Login

    Hourly Weather Banfora

    Today, 3 April, Friday

    Time Temperature Precipitation Wind Pressure Humidity
    00:00 +33°C° 0 mm 1 mps 732 mmHg 34%
    01:00 +32°C° 0 mm 1 mps 731 mmHg 38%
    02:00 +31°C° 0 mm 1 mps 731 mmHg 41%
    03:00 +30°C° 0 mm 1 mps 730 mmHg 45%
    04:00 +30°C° 0 mm 1 mps 730 mmHg 48%
    05:00 +29°C° 0 mm 1 mps 731 mmHg 52%
    06:00 +29°C° 0 mm 1 mps 731 mmHg 55%
    07:00 +31°C° 0 mm 2 mps 731 mmHg 51%
    08:00 +32°C° 0 mm 2 mps 732 mmHg 47%
    09:00 +35°C° 0 mm 2 mps 732 mmHg 43%
    10:00 +38°C° 0 mm 2 mps 732 mmHg 34%
    11:00 +41°C° 0 mm 1 mps 732 mmHg 25%
    12:00 +45°C° 0 mm 1 mps 731 mmHg 15%
    13:00 +45°C° 0 mm 1 mps 730 mmHg 13%
    14:00 +45°C° 0 mm 1 mps 730 mmHg 11%
    15:00 +46°C° 0 mm 1 mps 729 mmHg 9%
    16:00 +45°C° 0 mm 1 mps 729 mmHg 10%
    17:00 +44°C° 0 mm 1 mps 728 mmHg 11%
    18:00 +42°C° 0 mm 1 mps 728 mmHg 12%
    19:00 +41°C° 0 mm 1 mps 729 mmHg 14%
    20:00 +39°C° 0 mm 1 mps 729 mmHg 15%
    21:00 +34°C° 0 mm 0 mps 730 mmHg 17%
    22:00 +36°C° 0 mm 1 mps 730 mmHg 18%
    23:00 +35°C° 0 mm 1 mps 730 mmHg 20%

    Tomorrow, 4 April, Saturday

    Time Temperature Precipitation Wind Pressure Humidity
    00:00 +34°C° 0 mm 1 mps 730 mmHg 21%
    01:00 +33°C° 0 mm 1 mps 730 mmHg 25%
    02:00 +33°C° 0 mm 1 mps 730 mmHg 29%
    03:00 +32°C° 0 mm 2 mps 729 mmHg 33%
    04:00 +31°C° 0 mm 2 mps 730 mmHg 39%
    05:00 +31°C° 0 mm 2 mps 730 mmHg 46%
    06:00 +30°C° 0 mm 3 mps 731 mmHg 53%
    07:00 +31°C° 0 mm 3 mps 731 mmHg 53%
    08:00 +33°C° 0 mm 3 mps 732 mmHg 53%
    09:00 +34°C° 0 mm 4 mps 733 mmHg 53%
    10:00 +36°C° 0 mm 4 mps 732 mmHg 46%
    11:00 +38°C° 0 mm 3 mps 732 mmHg 39%
    12:00 +40°C° 0 mm 3 mps 732 mmHg 32%
    13:00 +42°C° 0 mm 2 mps 731 mmHg 27%
    14:00 +44°C° 0 mm 1 mps 730 mmHg 21%
    15:00 +43°C° 0 mm 0 mps 730 mmHg 16%
    16:00 +44°C° 0 mm 1 mps 730 mmHg 17%
    17:00 +43°C° 0 mm 1 mps 729 mmHg 18%
    18:00 +42°C° 0 mm 1 mps 729 mmHg 18%
    19:00 +40°C° 0 mm 1 mps 730 mmHg 20%
    20:00 +39°C° 0 mm 1 mps 730 mmHg 22%
    21:00 +37°C° 0 mm 1 mps 731 mmHg 23%
    22:00 +37°C° 0 mm 2 mps 731 mmHg 28%
    23:00 +36°C° 0 mm 2 mps 731 mmHg 33%

    Day after tomorrow, 5 April, Sunday

    Time Temperature Precipitation Wind Pressure Humidity
    00:00 +35°C° 0 mm 3 mps 731 mmHg 38%
    01:00 +34°C° 0 mm 3 mps 731 mmHg 44%
    02:00 +34°C° 0 mm 3 mps 731 mmHg 49%
    03:00 +33°C° 0 mm 3 mps 731 mmHg 55%
    04:00 +31°C° 0 mm 3 mps 731 mmHg 59%
    05:00 +31°C° 0 mm 3 mps 731 mmHg 63%
    06:00 +30°C° 0 mm 3 mps 732 mmHg 68%
    07:00 +31°C° 0 mm 3 mps 732 mmHg 64%
    08:00 +33°C° 0 mm 3 mps 733 mmHg 61%
    09:00 +34°C° 0 mm 4 mps 734 mmHg 57%
    10:00 +37°C° 0 mm 3 mps 733 mmHg 49%
    11:00 +39°C° 0 mm 2 mps 733 mmHg 41%
    12:00 +42°C° 0 mm 2 mps 732 mmHg 33%
    13:00 +43°C° 0 mm 1 mps 732 mmHg 28%
    14:00 +44°C° 0 mm 1 mps 731 mmHg 24%
    15:00 +45°C° 0 mm 1 mps 730 mmHg 20%
    16:00 +44°C° 0 mm 1 mps 730 mmHg 20%
    17:00 +43°C° 0 mm 1 mps 730 mmHg 21%
    18:00 +42°C° 0 mm 1 mps 730 mmHg 21%
    19:00 +41°C° 0 mm 1 mps 730 mmHg 23%
    20:00 +40°C° 0 mm 1 mps 731 mmHg 25%
    21:00 +39°C° 0 mm 1 mps 731 mmHg 27%
    22:00 +37°C° 0 mm 1 mps 731 mmHg 31%
    23:00 +36°C° 0 mm 1 mps 731 mmHg 35%

    6 April, Monday

    Time Temperature Precipitation Wind Pressure Humidity
    00:00 +36°C° 0 mm 2 mps 731 mmHg 39%
    01:00 +35°C° 0 mm 2 mps 730 mmHg 41%
    02:00 +34°C° 0 mm 2 mps 730 mmHg 43%
    03:00 +33°C° 0 mm 1 mps 730 mmHg 45%
    04:00 +32°C° 0 mm 1 mps 730 mmHg 48%
    05:00 +32°C° 0 mm 1 mps 730 mmHg 50%
    06:00 +31°C° 0 mm 1 mps 730 mmHg 53%
    07:00 +32°C° 0 mm 2 mps 731 mmHg 51%
    08:00 +34°C° 0 mm 2 mps 732 mmHg 50%
    09:00 +36°C° 0 mm 2 mps 732 mmHg 48%
    10:00 +38°C° 0 mm 2 mps 732 mmHg 41%
    11:00 +41°C° 0 mm 1 mps 732 mmHg 34%
    12:00 +44°C° 0 mm 1 mps 732 mmHg 26%
    13:00 +45°C° 0 mm 1 mps 731 mmHg 23%
    14:00 +45°C° 0 mm 1 mps 730 mmHg 20%
    15:00 +46°C° 0 mm 1 mps 730 mmHg 17%
    16:00 +45°C° 0 mm 1 mps 729 mmHg 17%
    17:00 +44°C° 0 mm 1 mps 729 mmHg 18%
    18:00 +42°C° 0 mm 1 mps 729 mmHg 19%
    19:00 +40°C° 0.1 mm 2 mps 729 mmHg 26%
    20:00 +38°C° 0.1 mm 3 mps 730 mmHg 34%
    21:00 +36°C° 0.1 mm 4 mps 731 mmHg 42%
    22:00 +35°C° 0 mm 4 mps 731 mmHg 48%
    23:00 +34°C° 0 mm 4 mps 731 mmHg 53%

    7 April, Tuesday

    Time Temperature Precipitation Wind Pressure Humidity
    00:00 +33°C° 0 mm 4 mps 732 mmHg 59%
    01:00 +33°C° 0 mm 4 mps 731 mmHg 59%
    02:00 +32°C° 0 mm 4 mps 731 mmHg 59%
    03:00 +32°C° 0 mm 4 mps 731 mmHg 60%
    04:00 +32°C° 0 mm 4 mps 731 mmHg 63%
    05:00 +30°C° 0 mm 3 mps 731 mmHg 66%
    06:00 +30°C° 0 mm 3 mps 731 mmHg 69%
    07:00 +30°C° 0 mm 3 mps 732 mmHg 66%
    08:00 +31°C° 0 mm 3 mps 733 mmHg 64%
    09:00 +33°C° 0 mm 3 mps 733 mmHg 61%
    10:00 +34°C° 0 mm 3 mps 733 mmHg 55%
    11:00 +36°C° 0 mm 3 mps 732 mmHg 49%
    12:00 +38°C° 0 mm 3 mps 732 mmHg 43%
    13:00 +39°C° 0 mm 2 mps 731 mmHg 37%
    14:00 +41°C° 0 mm 2 mps 731 mmHg 31%
    15:00 +43°C° 0 mm 1 mps 730 mmHg 26%
    16:00 +42°C° 0 mm 1 mps 730 mmHg 25%
    17:00 +41°C° 0 mm 1 mps 730 mmHg 25%
    18:00 +40°C° 0 mm 2 mps 729 mmHg 25%
    19:00 +39°C° 0 mm 2 mps 730 mmHg 28%
    20:00 +37°C° 0 mm 2 mps 730 mmHg 32%
    21:00 +36°C° 0 mm 2 mps 731 mmHg 35%
    22:00 +35°C° 0 mm 2 mps 731 mmHg 38%
    23:00 +35°C° 0 mm 2 mps 731 mmHg 40%

    8 April, Wednesday

    Time Temperature Precipitation Wind Pressure Humidity
    00:00 +34°C° 0 mm 2 mps 731 mmHg 42%
    01:00 +34°C° 0 mm 2 mps 731 mmHg 46%
    02:00 +32°C° 0 mm 2 mps 730 mmHg 51%
    03:00 +32°C° 0 mm 2 mps 730 mmHg 55%
    04:00 +31°C° 0 mm 2 mps 730 mmHg 57%
    05:00 +31°C° 0 mm 1 mps 730 mmHg 60%
    06:00 +30°C° 0 mm 1 mps 731 mmHg 62%
    07:00 +32°C° 0 mm 1 mps 731 mmHg 58%
    08:00 +34°C° 0 mm 2 mps 732 mmHg 54%
    09:00 +35°C° 0 mm 2 mps 732 mmHg 50%
    10:00 +38°C° 0 mm 2 mps 732 mmHg 43%
    11:00 +40°C° 0 mm 2 mps 732 mmHg 36%
    12:00 +42°C° 0 mm 1 mps 732 mmHg 29%
    13:00 +43°C° 0 mm 1 mps 731 mmHg 27%
    14:00 +43°C° 0 mm 1 mps 730 mmHg 24%
    15:00 +43°C° 0 mm 2 mps 729 mmHg 22%
    16:00 +40°C° 0.4 mm 3 mps 729 mmHg 30%
    17:00 +36°C° 0.4 mm 5 mps 729 mmHg 38%
    18:00 +33°C° 0.4 mm 6 mps 728 mmHg 46%
    19:00 +33°C° 0.4 mm 5 mps 729 mmHg 44%
    20:00 +33°C° 0.4 mm 3 mps 730 mmHg 42%
    21:00 +32°C° 0.4 mm 2 mps 731 mmHg 40%
    22:00 +32°C° 0 mm 2 mps 731 mmHg 43%
    23:00 +31°C° 0 mm 2 mps 731 mmHg 47%
    Show more